#timestamp,LO_Frequency,Hit,StdDev 
1600909215.8,286047000.1,N
1600909235.6,286047001.0,N
1600909255.5,286047000.1,N
1600909275.3,286047001.8,N
1600909295.1,286047003.9,N
1600909315.9,286047000.6,N
1600909335.7,286047000.2,N
1600909355.6,286047000.0,N
1600909375.4,286047002.1,N
1600909395.2,286046999.9,N
1600909415.1,286046998.9,N
1600909416.0,286046998.9,N
1600909435.8,286046999.2,N
1600909455.6,286046999.9,N
1600909475.5,286047000.2,N
1600909495.3,286046996.8,N
1600909515.2,286046995.1,N
1600909535.9,286046997.1,N
1600909555.7,286046997.0,N
1600909575.6,286047002.0,N
1600909595.4,286047003.5,N
1600909615.2,286047001.4,N
1600909635.1,286047003.2,N
1600909636.0,286047003.2,N
1600909655.8,286047004.7,N
1600909675.7,286047005.8,N
1600909695.5,286047003.2,N
1600909715.3,286047002.5,N
1600909735.2,286047004.4,N
1600909755.0,286047001.6,N
1600909755.9,286047001.6,N
1600909775.8,286047001.5,N
1600909795.6,286046999.7,N
1600909815.4,286047002.3,N
1600909835.3,286047000.8,N
1600909855.1,286047000.5,N
1600909875.8,286047002.7,N
1600909895.7,286047002.3,N
1600909915.5,286047005.6,N
1600909935.4,286047005.9,N
1600909955.2,286047001.4,N
1600909975.0,286047003.7,N
1600909975.9,286047003.7,N
1600909995.8,286047002.9,N
1600910015.6,286047003.4,N
1600910035.4,286047001.0,N
1600910055.3,286047002.0,N
1600910075.1,286046999.8,N
1600910095.9,286046998.5,N
1600910115.7,286046999.6,N
1600910135.5,286046999.0,N
1600910155.4,286046998.9,N
1600910175.2,286046997.7,N
1600910195.0,286046998.6,N
1600910195.9,286046998.6,N
1600910215.8,286047004.4,N
1600910235.6,286047003.2,N
1600910255.5,286047003.1,N
1600910275.3,286047002.3,N
1600910295.1,286047000.4,N
1600910315.9,286046998.7,N
1600910335.7,286046999.2,N
1600910355.5,286046999.3,N
1600910375.4,286046996.7,N
1600910395.2,286047000.9,N
1600910415.1,286047000.5,N
1600910416.0,286047000.5,N
1600910435.8,286047001.1,N
1600910455.6,286047002.2,N
1600910475.5,286047001.4,N
1600910495.3,286047004.0,N
1600910515.2,286046999.8,N
1600910535.9,286046999.8,N
1600910555.7,286047002.5,N
1600910575.6,286047004.0,N
1600910595.4,286047002.4,N
1600910645.3,286047001.5,E
1600910655.2,286047002.8,N
1600910675.0,286047001.1,P
1600910675.9,286047001.1,N
1600910695.8,286046998.8,N
1600910715.6,286047001.0,N
1600910735.4,286047001.2,N
1600910755.3,286047000.9,N
1600910775.1,286047002.2,N
1600910795.9,286047000.8,N
1600910815.7,286046999.4,N
1600910835.5,286047000.4,N
1600910855.4,286047001.5,N
1600910875.2,286047000.4,N
1600910895.0,286047002.7,N
1600910895.9,286047002.7,N
1600910915.8,286047000.3,N
1600910935.6,286047002.8,N
1600910955.5,286047000.7,N
1600910975.3,286047000.8,N
1600910995.1,286047001.7,N
1600911015.9,286047002.8,N
1600911035.7,286047002.7,N
1600911055.5,286047002.6,N
1600911075.4,286047001.8,N
1600911095.2,286046999.8,N
1600911115.1,286047002.6,N
1600911116.0,286047002.6,N
1600911135.8,286047000.7,N
1600911155.6,286047003.7,Y
1600911175.5,286047000.2,P
1600911195.3,286047000.0,N
1600911215.2,286047000.8,N
1600911235.9,286046998.7,N
1600911255.7,286047002.0,N
1600911275.6,286047004.2,Y
1600911295.4,286047004.1,P
1600911315.2,286046999.7,N
1600911335.1,286046998.1,N
1600911336.0,286046998.1,N
1600911355.8,286046997.1,N
1600911375.7,286046999.6,N
1600911395.5,286047000.7,N
1600911415.3,286047002.3,N
1600911435.2,286047002.1,N
1600911455.0,286047002.4,N
1600911455.9,286047002.4,N
1600911475.7,286047002.6,N
1600911495.6,286047001.8,N
1600911515.4,286047002.2,N
1600911535.3,286047001.8,N
1600911555.1,286047001.5,N
1600911556.0,286047001.5,N
1600911575.8,286047002.1,N
1600911595.7,286047002.3,N
1600911615.5,286046998.2,N
1600911635.4,286046999.2,N
1600911655.2,286047000.6,N
1600911675.0,286047001.1,N
1600911675.9,286047001.1,N
1600911695.8,286046996.7,N
1600911715.6,286046999.3,N
1600911735.4,286046999.0,N
1600911755.3,286046998.7,N
1600911775.1,286046998.8,N
1600911795.9,286047000.8,N
1600911815.7,286047002.6,N
1600911835.5,286047000.9,N
1600911855.4,286046998.1,N
1600911875.2,286047000.6,N
1600911895.0,286046996.7,N
1600911895.9,286046996.7,N
1600911915.8,286046997.3,N
1600911935.6,286046996.9,N
1600911955.5,286046998.6,N
1600911975.3,286047002.0,N
1600911995.1,286047001.7,N
1600912015.9,286047000.1,N
1600912035.7,286046998.3,N
1600912055.5,286046999.5,N
1600912075.4,286047002.7,N
1600912095.2,286047000.1,N
1600912115.1,286046998.4,N
1600912116.0,286046998.4,N
1600912135.8,286046998.9,N
1600912155.6,286046997.4,N
1600912175.5,286046997.8,N
1600912195.3,286046996.2,N
1600912215.1,286046996.7,N
1600912235.9,286046997.7,N
1600912255.7,286046999.5,N
1600912275.6,286046996.8,N
1600912295.4,286047001.0,N
1600912315.2,286047002.3,N
1600912335.1,286047002.7,N
1600912336.0,286047002.7,N
1600912355.8,286047001.4,N
1600912375.7,286046999.4,N
1600912395.5,286046999.3,N
1600912415.3,286046998.5,N
1600912435.2,286047000.3,N
1600912455.0,286046996.5,N
1600912455.9,286046996.5,N
1600912475.7,286046999.7,N
1600912495.6,286046998.0,N
1600912515.4,286046997.5,N
1600912535.3,286046996.5,N
1600912555.1,286046997.4,N
1600912556.0,286046997.4,N
1600912575.8,286046998.1,N
1600912595.7,286047000.4,N
1600912615.5,286047000.3,N
1600912635.4,286047000.5,N
1600912655.2,286047001.5,N
1600912675.0,286047002.3,N
1600912675.9,286047002.3,N
1600912695.8,286046999.4,N
1600912715.6,286046996.8,N
1600912735.4,286046998.4,N
1600912755.3,286046999.1,N
1600912775.1,286046998.7,N
1600912795.9,286046999.0,N
